Time,TemperatureF,DewpointF,PressureIn,WindDirection,WindDirectionDegrees,WindSpeedMPH,WindSpeedGustMPH,Humidity,HourlyPrecipIn,Conditions,Clouds,dailyrainin,SoftwareType,DateUTC
2013-02-20 00:00:00,47.9,46.3,29.95,NNW,338,0.0,0.0,94,0.01,,,0.00,WUHU216HW,2013-02-20 05:00:00,
2013-02-20 00:05:00,47.7,46.1,29.95,NNW,338,0.0,0.0,94,0.01,,,0.00,WUHU216HW,2013-02-20 05:05:00,
2013-02-20 00:10:00,47.5,45.6,29.95,NNW,338,0.0,0.0,93,0.01,,,0.00,WUHU216HW,2013-02-20 05:10:00,
2013-02-20 00:15:00,47.2,45.5,29.95,NNW,338,0.0,0.4,94,0.01,,,0.00,WUHU216HW,2013-02-20 05:15:00,
2013-02-20 00:20:00,46.8,44.9,29.95,NNW,338,0.0,0.4,93,0.00,,,0.00,WUHU216HW,2013-02-20 05:20:00,
2013-02-20 00:25:00,46.4,44.6,29.95,NNW,338,0.0,0.0,93,0.00,,,0.00,WUHU216HW,2013-02-20 05:25:00,
2013-02-20 00:30:00,46.4,44.6,29.95,NNW,338,0.0,0.0,93,0.00,,,0.00,WUHU216HW,2013-02-20 05:30:00,
2013-02-20 00:35:00,46.3,44.4,29.96,NNW,338,0.0,0.0,93,0.00,,,0.00,WUHU216HW,2013-02-20 05:35:00,
2013-02-20 00:40:00,46.1,44.5,29.96,NNW,338,0.0,0.0,94,0.00,,,0.00,WUHU216HW,2013-02-20 05:40:00,
2013-02-20 00:45:00,45.9,44.3,29.96,NNW,338,0.0,0.4,94,0.00,,,0.00,WUHU216HW,2013-02-20 05:45:00,
2013-02-20 00:50:00,45.9,44.3,29.96,NNW,338,0.0,0.4,94,0.00,,,0.00,WUHU216HW,2013-02-20 05:50:00,
2013-02-20 00:55:00,45.9,44.3,29.96,NNW,338,0.0,0.4,94,0.00,,,0.00,WUHU216HW,2013-02-20 05:55:00,
2013-02-20 01:00:00,45.7,43.8,29.96,NNW,338,0.0,0.0,93,0.00,,,0.00,WUHU216HW,2013-02-20 06:00:00,
2013-02-20 01:05:00,45.9,44.3,29.96,NNW,338,0.4,1.1,94,0.00,,,0.00,WUHU216HW,2013-02-20 06:05:00,
2013-02-20 01:10:00,45.7,43.8,29.97,NNW,338,0.0,1.1,93,0.00,,,0.00,WUHU216HW,2013-02-20 06:10:00,
2013-02-20 01:15:00,45.7,43.8,29.97,NNW,338,0.0,0.9,93,0.00,,,0.00,WUHU216HW,2013-02-20 06:15:00,
2013-02-20 01:20:00,45.7,43.8,29.97,NNW,338,0.0,0.4,93,0.00,,,0.00,WUHU216HW,2013-02-20 06:20:00,
2013-02-20 01:25:00,45.7,43.8,29.97,NNW,338,0.0,0.4,93,0.00,,,0.00,WUHU216HW,2013-02-20 06:25:00,
2013-02-20 01:30:00,45.5,43.7,29.97,NNW,338,0.0,0.4,93,0.00,,,0.00,WUHU216HW,2013-02-20 06:30:00,
2013-02-20 01:35:00,45.4,43.5,29.97,NNW,338,0.0,0.0,93,0.00,,,0.00,WUHU216HW,2013-02-20 06:35:00,
2013-02-20 01:40:00,45.2,43.3,29.97,NNW,338,0.2,0.4,93,0.00,,,0.00,WUHU216HW,2013-02-20 06:40:00,
2013-02-20 01:45:00,45.0,42.8,29.96,NNW,338,0.0,1.8,92,0.00,,,0.00,WUHU216HW,2013-02-20 06:45:00,
2013-02-20 01:50:00,45.0,42.8,29.96,NNW,338,0.4,1.8,92,0.00,,,0.00,WUHU216HW,2013-02-20 06:50:00,
2013-02-20 01:55:00,44.8,42.7,29.96,NNW,338,0.0,0.9,92,0.00,,,0.00,WUHU216HW,2013-02-20 06:55:00,
2013-02-20 02:00:00,44.8,42.7,29.96,NNW,338,0.0,0.4,92,0.00,,,0.00,WUHU216HW,2013-02-20 07:00:00,
2013-02-20 02:05:00,44.5,42.3,29.96,NNW,338,0.0,0.4,92,0.00,,,0.00,WUHU216HW,2013-02-20 07:05:00,
2013-02-20 02:10:00,44.3,41.9,29.96,NNW,338,0.0,0.4,91,0.00,,,0.00,WUHU216HW,2013-02-20 07:10:00,
2013-02-20 02:15:00,44.3,41.9,29.97,NNW,338,0.0,1.3,91,0.00,,,0.00,WUHU216HW,2013-02-20 07:15:00,
2013-02-20 02:20:00,43.9,41.5,29.97,NNW,338,0.0,1.3,91,0.00,,,0.00,WUHU216HW,2013-02-20 07:20:00,
2013-02-20 02:25:00,43.6,40.9,29.97,NNW,338,0.2,1.1,90,0.00,,,0.00,WUHU216HW,2013-02-20 07:25:00,
2013-02-20 02:30:00,43.6,40.9,29.96,NNW,338,0.0,1.1,90,0.00,,,0.00,WUHU216HW,2013-02-20 07:30:00,
2013-02-20 02:35:00,43.4,40.7,29.97,NNW,338,0.0,1.1,90,0.00,,,0.00,WUHU216HW,2013-02-20 07:35:00,
2013-02-20 02:40:00,43.0,40.3,29.97,NNW,338,0.0,0.7,90,0.00,,,0.00,WUHU216HW,2013-02-20 07:40:00,
2013-02-20 02:45:00,42.8,39.9,29.97,NNW,338,0.7,1.6,89,0.00,,,0.00,WUHU216HW,2013-02-20 07:45:00,
2013-02-20 02:50:00,42.7,39.7,29.97,NNW,338,0.0,1.6,89,0.00,,,0.00,WUHU216HW,2013-02-20 07:50:00,
2013-02-20 02:55:00,42.5,39.5,29.97,NNW,338,0.0,0.7,89,0.00,,,0.00,WUHU216HW,2013-02-20 07:55:00,
2013-02-20 03:00:00,42.3,39.0,29.97,NNW,338,0.0,0.7,88,0.00,,,0.00,WUHU216HW,2013-02-20 08:00:00,
2013-02-20 03:05:00,42.1,38.8,29.97,NNW,338,0.0,0.7,88,0.00,,,0.00,WUHU216HW,2013-02-20 08:05:00,
2013-02-20 03:10:00,42.1,38.8,29.97,NNW,338,0.0,0.4,88,0.00,,,0.00,WUHU216HW,2013-02-20 08:10:00,
2013-02-20 03:15:00,41.8,38.4,29.97,NNW,338,0.0,0.0,88,0.00,,,0.00,WUHU216HW,2013-02-20 08:15:00,
2013-02-20 03:20:00,41.4,38.1,29.97,NNW,338,0.0,0.0,88,0.00,,,0.00,WUHU216HW,2013-02-20 08:20:00,
2013-02-20 03:25:00,41.2,38.3,29.97,NNW,338,0.0,0.0,89,0.00,,,0.00,WUHU216HW,2013-02-20 08:25:00,
2013-02-20 03:30:00,40.9,37.5,29.97,NNW,338,0.0,0.4,88,0.00,,,0.00,WUHU216HW,2013-02-20 08:30:00,
2013-02-20 03:35:00,40.7,37.4,29.97,NNW,338,0.0,0.7,88,0.00,,,0.00,WUHU216HW,2013-02-20 08:35:00,
2013-02-20 03:40:00,40.5,37.5,29.97,NNW,338,0.0,0.7,89,0.00,,,0.00,WUHU216HW,2013-02-20 08:40:00,
2013-02-20 03:45:00,40.1,36.8,29.97,NNW,338,0.0,0.4,88,0.00,,,0.00,WUHU216HW,2013-02-20 08:45:00,
2013-02-20 03:50:00,40.0,37.0,29.97,NNW,338,0.0,0.4,89,0.00,,,0.00,WUHU216HW,2013-02-20 08:50:00,
2013-02-20 03:55:00,39.8,36.8,29.97,NNW,338,0.0,0.0,89,0.00,,,0.00,WUHU216HW,2013-02-20 08:55:00,
2013-02-20 04:00:00,39.6,36.0,29.97,NNW,338,0.7,1.1,87,0.00,,,0.00,WUHU216HW,2013-02-20 09:00:00,
2013-02-20 04:05:00,39.8,36.2,29.97,NNW,338,0.0,1.1,87,0.00,,,0.00,WUHU216HW,2013-02-20 09:05:00,
2013-02-20 04:10:00,39.8,36.2,29.97,NNW,338,0.0,0.7,87,0.00,,,0.00,WUHU216HW,2013-02-20 09:10:00,
2013-02-20 04:15:00,39.4,35.8,29.97,NNW,338,0.0,0.2,87,0.00,,,0.00,WUHU216HW,2013-02-20 09:15:00,
2013-02-20 04:20:00,39.1,35.5,29.97,NNW,338,0.0,0.0,87,0.00,,,0.00,WUHU216HW,2013-02-20 09:20:00,
2013-02-20 04:25:00,38.7,35.5,29.97,NNW,338,0.0,0.2,88,0.00,,,0.00,WUHU216HW,2013-02-20 09:25:00,
2013-02-20 04:30:00,38.5,35.3,29.97,NNW,338,0.0,0.4,88,0.00,,,0.00,WUHU216HW,2013-02-20 09:30:00,
2013-02-20 04:35:00,38.5,35.3,29.98,NNW,338,0.0,0.4,88,0.00,,,0.00,WUHU216HW,2013-02-20 09:35:00,
2013-02-20 04:40:00,38.2,34.9,29.98,NNW,338,0.0,0.4,88,0.00,,,0.00,WUHU216HW,2013-02-20 09:40:00,
2013-02-20 04:45:00,38.0,34.8,29.98,NNW,338,0.0,0.7,88,0.00,,,0.00,WUHU216HW,2013-02-20 09:45:00,
2013-02-20 04:50:00,37.8,34.8,29.98,NNW,338,0.0,0.7,89,0.00,,,0.00,WUHU216HW,2013-02-20 09:50:00,
2013-02-20 04:55:00,37.4,34.5,29.98,NNW,338,0.0,0.0,89,0.00,,,0.00,WUHU216HW,2013-02-20 09:55:00,
2013-02-20 05:00:00,37.3,34.0,29.98,NNW,338,0.0,0.0,88,0.00,,,0.00,WUHU216HW,2013-02-20 10:00:00,
2013-02-20 05:05:00,37.1,33.9,29.98,NNW,338,0.0,0.0,88,0.00,,,0.00,WUHU216HW,2013-02-20 10:05:00,
2013-02-20 05:10:00,37.1,33.9,29.99,NNW,338,0.0,0.0,88,0.00,,,0.00,WUHU216HW,2013-02-20 10:10:00,
2013-02-20 05:15:00,36.9,33.9,29.99,NNW,338,0.0,0.0,89,0.00,,,0.00,WUHU216HW,2013-02-20 10:15:00,
2013-02-20 05:20:00,36.7,33.8,29.99,NNW,338,0.0,0.0,89,0.00,,,0.00,WUHU216HW,2013-02-20 10:20:00,
2013-02-20 05:25:00,36.5,33.6,29.99,NNW,338,0.0,0.0,89,0.00,,,0.00,WUHU216HW,2013-02-20 10:25:00,
2013-02-20 05:30:00,36.7,33.8,29.99,NNW,338,0.0,0.0,89,0.00,,,0.00,WUHU216HW,2013-02-20 10:30:00,
2013-02-20 05:35:00,36.7,33.8,29.99,NNW,338,0.0,0.0,89,0.00,,,0.00,WUHU216HW,2013-02-20 10:35:00,
2013-02-20 05:40:00,36.4,33.4,29.99,NNW,338,0.0,0.0,89,0.00,,,0.00,WUHU216HW,2013-02-20 10:40:00,
2013-02-20 05:45:00,36.2,33.2,29.99,NNW,338,0.0,0.0,89,0.00,,,0.00,WUHU216HW,2013-02-20 10:45:00,
2013-02-20 05:50:00,36.0,33.0,29.99,NNW,338,0.0,0.2,89,0.00,,,0.00,WUHU216HW,2013-02-20 10:50:00,
2013-02-20 05:55:00,35.8,32.9,29.99,NNW,338,0.0,0.2,89,0.00,,,0.00,WUHU216HW,2013-02-20 10:55:00,
2013-02-20 06:00:00,35.6,32.7,29.99,NNW,338,0.0,0.2,89,0.00,,,0.00,WUHU216HW,2013-02-20 11:00:00,
2013-02-20 06:05:00,35.5,32.5,29.99,NNW,338,0.0,0.2,89,0.00,,,0.00,WUHU216HW,2013-02-20 11:05:00,
2013-02-20 06:10:00,35.3,32.3,29.99,NNW,338,0.0,0.0,89,0.00,,,0.00,WUHU216HW,2013-02-20 11:10:00,
2013-02-20 06:15:00,35.3,32.3,30.00,NNW,338,0.0,0.0,89,0.00,,,0.00,WUHU216HW,2013-02-20 11:15:00,
2013-02-20 06:20:00,35.3,32.3,30.00,NNW,338,0.0,0.0,89,0.00,,,0.00,WUHU216HW,2013-02-20 11:20:00,
2013-02-20 06:25:00,35.3,32.3,30.00,NNW,338,0.0,0.0,89,0.00,,,0.00,WUHU216HW,2013-02-20 11:25:00,
2013-02-20 06:30:00,35.1,32.1,30.01,NNW,338,0.0,0.0,89,0.00,,,0.00,WUHU216HW,2013-02-20 11:30:00,
2013-02-20 06:35:00,35.1,32.1,30.00,NNW,338,0.0,0.0,89,0.00,,,0.00,WUHU216HW,2013-02-20 11:35:00,
2013-02-20 06:40:00,34.9,32.0,30.01,NNW,338,0.0,0.0,89,0.00,,,0.00,WUHU216HW,2013-02-20 11:40:00,
2013-02-20 06:45:00,34.7,31.5,30.01,NNW,338,0.0,0.0,88,0.00,,,0.00,WUHU216HW,2013-02-20 11:45:00,
2013-02-20 06:50:00,34.4,31.4,30.01,NNW,338,0.0,0.0,89,0.00,,,0.00,WUHU216HW,2013-02-20 11:50:00,
2013-02-20 06:55:00,34.2,31.2,30.01,NNW,338,0.0,0.0,89,0.00,,,0.00,WUHU216HW,2013-02-20 11:55:00,
2013-02-20 07:00:00,33.7,30.7,30.01,NNW,338,0.0,0.0,89,0.00,,,0.00,WUHU216HW,2013-02-20 12:00:00,
2013-02-20 07:05:00,33.5,30.5,30.01,NNW,338,0.0,0.0,89,0.00,,,0.00,WUHU216HW,2013-02-20 12:05:00,
2013-02-20 07:10:00,33.3,30.3,30.02,NNW,338,0.0,0.0,89,0.00,,,0.00,WUHU216HW,2013-02-20 12:10:00,
2013-02-20 07:15:00,33.3,30.3,30.02,NNW,338,0.0,0.0,89,0.00,,,0.00,WUHU216HW,2013-02-20 12:15:00,
2013-02-20 07:20:00,33.3,30.3,30.02,NNW,338,0.0,0.0,89,0.00,,,0.00,WUHU216HW,2013-02-20 12:20:00,
2013-02-20 07:25:00,33.5,30.8,30.03,NNW,338,0.0,0.0,90,0.00,,,0.00,WUHU216HW,2013-02-20 12:25:00,
2013-02-20 07:30:00,33.5,30.8,30.03,NNW,338,0.0,0.0,90,0.00,,,0.00,WUHU216HW,2013-02-20 12:30:00,
2013-02-20 07:35:00,33.7,31.2,30.04,NNW,338,0.0,0.0,91,0.00,,,0.00,WUHU216HW,2013-02-20 12:35:00,
2013-02-20 07:40:00,34.0,31.9,30.04,NNW,338,0.4,0.4,92,0.00,,,0.00,WUHU216HW,2013-02-20 12:40:00,
2013-02-20 07:45:00,34.2,32.0,30.05,NNW,338,0.9,0.9,92,0.00,,,0.00,WUHU216HW,2013-02-20 12:45:00,
2013-02-20 07:50:00,34.2,32.0,30.05,NNW,338,0.0,0.9,92,0.00,,,0.00,WUHU216HW,2013-02-20 12:50:00,
2013-02-20 07:55:00,34.4,32.0,30.06,NNW,338,0.0,0.9,91,0.01,,,0.01,WUHU216HW,2013-02-20 12:55:00,
2013-02-20 08:00:00,34.7,32.3,30.05,NNW,338,0.0,0.4,91,0.01,,,0.01,WUHU216HW,2013-02-20 13:00:00,
2013-02-20 08:05:00,34.9,32.5,30.05,NNW,338,0.0,0.4,91,0.01,,,0.01,WUHU216HW,2013-02-20 13:05:00,
2013-02-20 08:10:00,35.1,32.7,30.06,NNW,338,0.0,0.9,91,0.01,,,0.01,WUHU216HW,2013-02-20 13:10:00,
2013-02-20 08:15:00,35.5,33.0,30.05,NNW,338,0.0,0.9,91,0.01,,,0.01,WUHU216HW,2013-02-20 13:15:00,
2013-02-20 08:20:00,36.0,33.3,30.06,NNW,338,0.4,0.4,90,0.01,,,0.01,WUHU216HW,2013-02-20 13:20:00,
2013-02-20 08:25:00,36.5,33.6,30.06,NNW,338,0.0,0.7,89,0.01,,,0.01,WUHU216HW,2013-02-20 13:25:00,
2013-02-20 08:30:00,37.1,33.5,30.06,NNW,338,0.2,2.5,87,0.01,,,0.01,WUHU216HW,2013-02-20 13:30:00,
2013-02-20 08:35:00,37.6,33.5,30.06,NNW,338,0.7,2.5,85,0.01,,,0.01,WUHU216HW,2013-02-20 13:35:00,
2013-02-20 08:40:00,38.2,33.1,30.06,NNW,338,0.7,1.3,82,0.01,,,0.01,WUHU216HW,2013-02-20 13:40:00,
2013-02-20 08:45:00,38.5,32.9,30.06,NNW,338,0.7,1.8,80,0.01,,,0.01,WUHU216HW,2013-02-20 13:45:00,
2013-02-20 08:50:00,39.1,34.0,30.06,NNW,338,1.1,2.7,82,0.01,,,0.01,WUHU216HW,2013-02-20 13:50:00,
2013-02-20 08:55:00,39.4,34.4,30.06,NNW,338,0.2,2.7,82,0.00,,,0.01,WUHU216HW,2013-02-20 13:55:00,
2013-02-20 09:00:00,39.8,34.1,30.06,NNW,338,0.4,1.1,80,0.00,,,0.01,WUHU216HW,2013-02-20 14:00:00,
2013-02-20 09:05:00,40.1,33.5,30.06,NNW,338,0.7,0.7,77,0.00,,,0.01,WUHU216HW,2013-02-20 14:05:00,
2013-02-20 09:10:00,40.7,34.7,30.06,NNW,338,0.7,0.7,79,0.00,,,0.01,WUHU216HW,2013-02-20 14:10:00,
2013-02-20 09:15:00,41.2,34.5,30.06,NNW,338,0.0,1.8,77,0.00,,,0.01,WUHU216HW,2013-02-20 14:15:00,
2013-02-20 09:20:00,41.8,34.8,30.06,NNE,23,2.5,2.5,76,0.00,,,0.01,WUHU216HW,2013-02-20 14:20:00,
2013-02-20 09:25:00,42.1,35.4,30.07,NNE,23,0.9,2.5,77,0.00,,,0.01,WUHU216HW,2013-02-20 14:25:00,
2013-02-20 09:30:00,42.8,35.8,30.06,NE,45,2.5,3.6,76,0.00,,,0.01,WUHU216HW,2013-02-20 14:30:00,
2013-02-20 09:35:00,43.2,34.2,30.06,NE,45,2.9,3.6,70,0.00,,,0.01,WUHU216HW,2013-02-20 14:35:00,
2013-02-20 09:40:00,43.7,33.1,30.06,NE,45,3.1,3.1,66,0.00,,,0.01,WUHU216HW,2013-02-20 14:40:00,
2013-02-20 09:45:00,44.3,34.7,30.06,NE,45,2.9,3.4,69,0.00,,,0.01,WUHU216HW,2013-02-20 14:45:00,
2013-02-20 09:50:00,44.6,33.2,30.06,NE,45,0.4,3.4,64,0.00,,,0.01,WUHU216HW,2013-02-20 14:50:00,
2013-02-20 09:55:00,45.0,33.1,30.06,North,0,0.2,4.0,63,0.00,,,0.01,WUHU216HW,2013-02-20 14:55:00,
2013-02-20 10:00:00,45.4,33.1,30.05,North,0,0.9,4.0,62,0.00,,,0.01,WUHU216HW,2013-02-20 15:00:00,
2013-02-20 10:05:00,45.9,32.0,30.05,North,0,0.9,1.8,58,0.00,,,0.01,WUHU216HW,2013-02-20 15:05:00,
2013-02-20 10:10:00,46.3,31.8,30.05,NNW,338,1.8,2.5,57,0.00,,,0.01,WUHU216HW,2013-02-20 15:10:00,
2013-02-20 10:15:00,46.4,31.5,30.05,ENE,68,2.0,4.7,56,0.00,,,0.01,WUHU216HW,2013-02-20 15:15:00,
2013-02-20 10:20:00,46.8,32.3,30.05,NNE,23,0.9,5.6,57,0.00,,,0.01,WUHU216HW,2013-02-20 15:20:00,
2013-02-20 10:25:00,47.2,32.7,30.05,NE,45,5.4,5.6,57,0.00,,,0.01,WUHU216HW,2013-02-20 15:25:00,
2013-02-20 10:30:00,47.7,32.7,30.05,NE,45,0.4,5.4,56,0.00,,,0.01,WUHU216HW,2013-02-20 15:30:00,
2013-02-20 10:35:00,47.9,30.6,30.05,North,0,1.6,5.4,51,0.00,,,0.01,WUHU216HW,2013-02-20 15:35:00,
2013-02-20 10:40:00,48.1,31.2,30.05,North,0,0.7,4.9,52,0.00,,,0.01,WUHU216HW,2013-02-20 15:40:00,
2013-02-20 10:45:00,48.1,30.7,30.05,ENE,68,1.3,4.9,51,0.00,,,0.01,WUHU216HW,2013-02-20 15:45:00,
2013-02-20 10:50:00,48.6,29.7,30.05,ENE,68,1.1,4.0,48,0.00,,,0.01,WUHU216HW,2013-02-20 15:50:00,
2013-02-20 10:55:00,48.8,30.4,30.05,NNE,23,0.7,5.6,49,0.00,,,0.01,WUHU216HW,2013-02-20 15:55:00,
2013-02-20 11:00:00,49.1,31.3,30.06,NNE,23,5.4,5.6,50,0.00,,,0.01,WUHU216HW,2013-02-20 16:00:00,
2013-02-20 11:05:00,49.9,32.0,30.06,NNE,23,0.0,5.4,50,0.00,,,0.01,WUHU216HW,2013-02-20 16:05:00,
2013-02-20 11:10:00,50.0,30.5,30.06,NW,315,1.8,3.8,47,0.00,,,0.01,WUHU216HW,2013-02-20 16:10:00,
2013-02-20 11:15:00,50.2,31.2,30.05,ENE,68,1.3,4.0,48,0.00,,,0.01,WUHU216HW,2013-02-20 16:15:00,
2013-02-20 11:20:00,50.8,31.2,30.05,NNE,23,2.2,4.0,47,0.00,,,0.01,WUHU216HW,2013-02-20 16:20:00,
2013-02-20 11:25:00,50.8,30.1,30.05,NNW,338,0.2,2.2,45,0.00,,,0.01,WUHU216HW,2013-02-20 16:25:00,
2013-02-20 11:30:00,51.1,30.4,30.05,NNE,23,1.8,2.2,45,0.00,,,0.01,WUHU216HW,2013-02-20 16:30:00,
2013-02-20 11:35:00,51.1,31.0,30.04,NE,45,0.0,2.5,46,0.00,,,0.01,WUHU216HW,2013-02-20 16:35:00,
2013-02-20 11:40:00,51.5,30.2,30.04,North,0,1.8,2.9,44,0.00,,,0.01,WUHU216HW,2013-02-20 16:40:00,
2013-02-20 11:45:00,51.7,29.8,30.04,NNE,23,3.4,6.9,43,0.00,,,0.01,WUHU216HW,2013-02-20 16:45:00,
2013-02-20 11:50:00,51.7,29.3,30.03,ENE,68,1.3,6.9,42,0.00,,,0.01,WUHU216HW,2013-02-20 16:50:00,
2013-02-20 11:55:00,51.5,30.2,30.03,ENE,68,1.1,3.4,44,0.00,,,0.01,WUHU216HW,2013-02-20 16:55:00,
2013-02-20 12:00:00,52.4,32.1,30.03,ENE,68,0.4,2.9,46,0.00,,,0.01,WUHU216HW,2013-02-20 17:00:00,
2013-02-20 12:05:00,52.9,32.1,30.02,ESE,113,1.1,2.5,45,0.00,,,0.01,WUHU216HW,2013-02-20 17:05:00,
2013-02-20 12:10:00,53.3,32.3,30.02,East,90,0.2,2.5,45,0.00,,,0.01,WUHU216HW,2013-02-20 17:10:00,
2013-02-20 12:15:00,53.5,33.0,30.02,East,90,1.6,3.6,46,0.00,,,0.01,WUHU216HW,2013-02-20 17:15:00,
2013-02-20 12:20:00,53.8,33.4,30.02,East,90,2.5,3.6,46,0.00,,,0.01,WUHU216HW,2013-02-20 17:20:00,
2013-02-20 12:25:00,53.8,30.6,30.01,SSW,203,2.9,3.1,41,0.00,,,0.01,WUHU216HW,2013-02-20 17:25:00,
2013-02-20 12:30:00,53.6,31.6,30.01,SW,225,0.0,2.9,43,0.00,,,0.01,WUHU216HW,2013-02-20 17:30:00,
2013-02-20 12:35:00,53.8,31.1,30.01,SW,225,0.4,2.7,42,0.00,,,0.01,WUHU216HW,2013-02-20 17:35:00,
2013-02-20 12:40:00,54.0,30.8,30.01,NNE,23,1.1,2.2,41,0.00,,,0.01,WUHU216HW,2013-02-20 17:40:00,
2013-02-20 12:45:00,54.4,29.2,30.00,SSW,203,1.8,2.5,38,0.00,,,0.01,WUHU216HW,2013-02-20 17:45:00,
2013-02-20 12:50:00,54.7,28.8,30.00,SSW,203,1.3,2.5,37,0.00,,,0.01,WUHU216HW,2013-02-20 17:50:00,
2013-02-20 12:55:00,54.7,30.2,30.00,WSW,248,1.6,2.5,39,0.00,,,0.01,WUHU216HW,2013-02-20 17:55:00,
2013-02-20 13:00:00,54.7,30.2,30.00,WSW,248,2.7,2.7,39,0.00,,,0.01,WUHU216HW,2013-02-20 18:00:00,
2013-02-20 13:05:00,55.1,29.1,29.99,SE,135,1.6,2.7,37,0.00,,,0.01,WUHU216HW,2013-02-20 18:05:00,
2013-02-20 13:10:00,55.4,30.1,29.99,ENE,68,0.4,4.3,38,0.00,,,0.01,WUHU216HW,2013-02-20 18:10:00,
2013-02-20 13:15:00,55.6,31.0,29.99,ENE,68,0.0,4.3,39,0.00,,,0.01,WUHU216HW,2013-02-20 18:15:00,
2013-02-20 13:20:00,55.8,30.4,29.98,ENE,68,0.9,2.7,38,0.00,,,0.01,WUHU216HW,2013-02-20 18:20:00,
2013-02-20 13:25:00,56.2,29.3,29.98,ENE,68,1.6,2.7,36,0.00,,,0.01,WUHU216HW,2013-02-20 18:25:00,
2013-02-20 13:30:00,56.5,30.3,29.98,ENE,68,0.0,1.8,37,0.00,,,0.01,WUHU216HW,2013-02-20 18:30:00,
2013-02-20 13:35:00,57.2,31.1,29.98,ENE,68,1.8,3.6,37,0.00,,,0.01,WUHU216HW,2013-02-20 18:35:00,
2013-02-20 13:40:00,57.4,30.5,29.97,ENE,68,0.2,3.6,36,0.00,,,0.01,WUHU216HW,2013-02-20 18:40:00,
2013-02-20 13:45:00,57.4,31.9,29.97,ENE,68,0.2,1.8,38,0.00,,,0.01,WUHU216HW,2013-02-20 18:45:00,
2013-02-20 13:50:00,57.8,32.2,29.97,ENE,68,2.5,4.0,38,0.00,,,0.01,WUHU216HW,2013-02-20 18:50:00,
2013-02-20 13:55:00,58.5,32.9,29.97,ENE,68,0.4,4.0,38,0.00,,,0.01,WUHU216HW,2013-02-20 18:55:00,
2013-02-20 14:00:00,58.9,30.3,29.96,ENE,68,2.5,2.9,34,0.00,,,0.01,WUHU216HW,2013-02-20 19:00:00,
2013-02-20 14:05:00,59.0,29.8,29.96,ENE,68,0.4,2.9,33,0.00,,,0.01,WUHU216HW,2013-02-20 19:05:00,
2013-02-20 14:10:00,59.4,29.4,29.96,WNW,293,1.8,2.9,32,0.00,,,0.01,WUHU216HW,2013-02-20 19:10:00,
2013-02-20 14:15:00,59.0,29.2,29.96,SW,225,1.1,3.1,32,0.00,,,0.01,WUHU216HW,2013-02-20 19:15:00,
2013-02-20 14:20:00,59.2,29.3,29.96,SW,225,1.6,4.0,32,0.00,,,0.01,WUHU216HW,2013-02-20 19:20:00,
2013-02-20 14:25:00,59.4,30.9,29.96,SW,225,0.0,4.0,34,0.00,,,0.01,WUHU216HW,2013-02-20 19:25:00,
2013-02-20 14:30:00,59.8,31.2,29.96,SSW,203,0.4,3.8,34,0.00,,,0.01,WUHU216HW,2013-02-20 19:30:00,
2013-02-20 14:35:00,59.9,30.6,29.96,NW,315,0.4,3.8,33,0.00,,,0.01,WUHU216HW,2013-02-20 19:35:00,
2013-02-20 14:40:00,60.5,33.9,29.96,NW,315,0.0,2.0,37,0.00,,,0.01,WUHU216HW,2013-02-20 19:40:00,
2013-02-20 14:45:00,61.0,31.5,29.97,WSW,248,0.7,2.7,33,0.00,,,0.01,WUHU216HW,2013-02-20 19:45:00,
2013-02-20 14:50:00,61.6,35.6,29.97,ESE,113,2.7,2.7,38,0.00,,,0.01,WUHU216HW,2013-02-20 19:50:00,
2013-02-20 14:55:00,62.6,35.1,29.97,ESE,113,1.1,2.7,36,0.00,,,0.01,WUHU216HW,2013-02-20 19:55:00,
2013-02-20 15:00:00,62.3,31.1,29.97,SW,225,1.6,3.1,31,0.00,,,0.01,WUHU216HW,2013-02-20 20:00:00,
2013-02-20 15:05:00,62.1,30.3,29.97,SSW,203,0.4,3.4,30,0.00,,,0.01,WUHU216HW,2013-02-20 20:05:00,
2013-02-20 15:10:00,62.3,29.5,29.97,NW,315,1.6,3.4,29,0.00,,,0.01,WUHU216HW,2013-02-20 20:10:00,
2013-02-20 15:15:00,61.7,32.9,29.97,NW,315,0.4,2.7,34,0.00,,,0.01,WUHU216HW,2013-02-20 20:15:00,
2013-02-20 15:20:00,62.1,31.8,29.96,NNW,338,1.1,2.5,32,0.00,,,0.01,WUHU216HW,2013-02-20 20:20:00,
2013-02-20 15:25:00,63.2,34.1,29.97,NNW,338,0.7,2.5,34,0.00,,,0.01,WUHU216HW,2013-02-20 20:25:00,
2013-02-20 15:30:00,63.4,33.6,29.96,SSW,203,1.3,3.4,33,0.00,,,0.01,WUHU216HW,2013-02-20 20:30:00,
2013-02-20 15:35:00,63.7,32.5,29.97,South,180,1.8,3.4,31,0.00,,,0.01,WUHU216HW,2013-02-20 20:35:00,
2013-02-20 15:40:00,63.2,33.4,29.97,NNW,338,0.9,2.2,33,0.00,,,0.01,WUHU216HW,2013-02-20 20:40:00,
2013-02-20 15:45:00,62.8,32.4,29.97,SW,225,1.1,2.7,32,0.00,,,0.01,WUHU216HW,2013-02-20 20:45:00,
2013-02-20 15:50:00,61.7,30.7,29.97,NNW,338,1.3,2.7,31,0.00,,,0.01,WUHU216HW,2013-02-20 20:50:00,
2013-02-20 15:55:00,60.5,30.3,29.97,South,180,2.9,3.6,32,0.00,,,0.01,WUHU216HW,2013-02-20 20:55:00,
2013-02-20 16:00:00,60.7,31.9,29.97,NW,315,1.8,3.6,34,0.00,,,0.01,WUHU216HW,2013-02-20 21:00:00,
2013-02-20 16:05:00,60.8,30.6,29.96,SSW,203,1.8,2.9,32,0.00,,,0.01,WUHU216HW,2013-02-20 21:05:00,
2013-02-20 16:10:00,61.7,32.9,29.96,SW,225,0.7,2.0,34,0.00,,,0.01,WUHU216HW,2013-02-20 21:10:00,
2013-02-20 16:15:00,61.0,31.5,29.96,SW,225,0.9,1.8,33,0.00,,,0.01,WUHU216HW,2013-02-20 21:15:00,
2013-02-20 16:20:00,60.5,33.2,29.96,SW,225,1.1,1.8,36,0.00,,,0.01,WUHU216HW,2013-02-20 21:20:00,
2013-02-20 16:25:00,60.5,34.6,29.96,SW,225,0.4,1.8,38,0.00,,,0.01,WUHU216HW,2013-02-20 21:25:00,
2013-02-20 16:30:00,60.3,35.2,29.96,SW,225,0.0,0.7,39,0.00,,,0.01,WUHU216HW,2013-02-20 21:30:00,
2013-02-20 16:35:00,60.1,35.0,29.96,SW,225,0.7,0.7,39,0.00,,,0.01,WUHU216HW,2013-02-20 21:35:00,
2013-02-20 16:40:00,59.6,33.1,29.96,South,180,1.1,2.9,37,0.00,,,0.01,WUHU216HW,2013-02-20 21:40:00,
2013-02-20 16:45:00,59.0,34.0,29.96,South,180,0.0,2.9,39,0.00,,,0.01,WUHU216HW,2013-02-20 21:45:00,
2013-02-20 16:50:00,59.0,34.7,29.96,South,180,0.0,2.5,40,0.00,,,0.01,WUHU216HW,2013-02-20 21:50:00,
2013-02-20 16:55:00,59.4,34.4,29.96,South,180,0.4,0.9,39,0.00,,,0.01,WUHU216HW,2013-02-20 21:55:00,
2013-02-20 17:00:00,60.3,35.9,29.96,South,180,0.0,1.8,40,0.00,,,0.01,WUHU216HW,2013-02-20 22:00:00,
2013-02-20 17:05:00,61.6,34.1,29.97,South,180,1.1,1.8,36,0.00,,,0.01,WUHU216HW,2013-02-20 22:05:00,
2013-02-20 17:10:00,61.9,35.9,29.96,South,180,0.4,1.6,38,0.00,,,0.01,WUHU216HW,2013-02-20 22:10:00,
2013-02-20 17:15:00,61.0,33.7,29.97,South,180,0.9,1.6,36,0.00,,,0.01,WUHU216HW,2013-02-20 22:15:00,
2013-02-20 17:20:00,59.9,32.7,29.98,SW,225,1.1,1.6,36,0.00,,,0.01,WUHU216HW,2013-02-20 22:20:00,
2013-02-20 17:25:00,59.0,32.7,29.98,SSW,203,0.7,1.6,37,0.00,,,0.01,WUHU216HW,2013-02-20 22:25:00,
2013-02-20 17:30:00,58.7,33.0,29.98,SSW,203,0.2,1.6,38,0.00,,,0.01,WUHU216HW,2013-02-20 22:30:00,
2013-02-20 17:35:00,58.3,33.4,29.98,SSW,203,0.9,0.9,39,0.00,,,0.01,WUHU216HW,2013-02-20 22:35:00,
2013-02-20 17:40:00,58.0,33.8,29.98,SSW,203,0.0,0.9,40,0.00,,,0.01,WUHU216HW,2013-02-20 22:40:00,
2013-02-20 17:45:00,57.2,33.1,29.98,SSW,203,0.0,0.4,40,0.00,,,0.01,WUHU216HW,2013-02-20 22:45:00,
2013-02-20 17:50:00,56.9,33.4,29.99,SSW,203,0.0,0.4,41,0.00,,,0.01,WUHU216HW,2013-02-20 22:50:00,
2013-02-20 17:55:00,56.3,33.5,29.99,SSW,203,0.0,0.0,42,0.00,,,0.01,WUHU216HW,2013-02-20 22:55:00,
2013-02-20 18:00:00,55.8,33.5,29.99,SSW,203,0.0,0.0,43,0.00,,,0.01,WUHU216HW,2013-02-20 23:00:00,
2013-02-20 18:05:00,54.9,33.9,30.00,SSW,203,0.0,0.0,45,0.00,,,0.01,WUHU216HW,2013-02-20 23:05:00,
2013-02-20 18:10:00,54.5,33.5,30.00,SSW,203,0.0,0.0,45,0.00,,,0.01,WUHU216HW,2013-02-20 23:10:00,
2013-02-20 18:15:00,54.2,33.8,30.00,SSW,203,0.0,0.0,46,0.00,,,0.01,WUHU216HW,2013-02-20 23:15:00,
2013-02-20 18:20:00,54.0,33.6,30.00,SSW,203,0.0,0.0,46,0.00,,,0.01,WUHU216HW,2013-02-20 23:20:00,
2013-02-20 18:25:00,53.8,33.4,30.00,SSW,203,0.0,0.2,46,0.00,,,0.01,WUHU216HW,2013-02-20 23:25:00,
2013-02-20 18:30:00,53.6,33.2,30.00,SSW,203,0.0,0.2,46,0.00,,,0.01,WUHU216HW,2013-02-20 23:30:00,
2013-02-20 18:35:00,53.5,33.0,30.00,SSW,203,0.0,0.0,46,0.00,,,0.01,WUHU216HW,2013-02-20 23:35:00,
2013-02-20 18:40:00,53.3,33.5,30.00,SSW,203,0.0,0.0,47,0.00,,,0.01,WUHU216HW,2013-02-20 23:40:00,
2013-02-20 18:45:00,53.1,33.3,30.00,SSW,203,0.0,0.0,47,0.00,,,0.01,WUHU216HW,2013-02-20 23:45:00,
2013-02-20 18:50:00,52.7,32.9,30.00,SSW,203,0.0,0.0,47,0.00,,,0.01,WUHU216HW,2013-02-20 23:50:00,
2013-02-20 18:55:00,52.4,33.2,30.01,SSW,203,0.0,0.0,48,0.00,,,0.01,WUHU216HW,2013-02-20 23:55:00,
2013-02-20 19:00:00,52.2,33.6,30.01,SSW,203,0.0,0.0,49,0.00,,,0.01,WUHU216HW,2013-02-21 00:00:00,
2013-02-20 19:05:00,52.0,33.5,30.01,SSW,203,0.0,0.0,49,0.00,,,0.01,WUHU216HW,2013-02-21 00:05:00,
2013-02-20 19:10:00,51.8,33.8,30.01,SSW,203,0.0,0.0,50,0.00,,,0.01,WUHU216HW,2013-02-21 00:10:00,
2013-02-20 19:15:00,51.8,34.3,30.01,SSW,203,0.0,0.0,51,0.00,,,0.01,WUHU216HW,2013-02-21 00:15:00,
2013-02-20 19:20:00,51.7,34.1,30.01,SSW,203,0.0,0.0,51,0.00,,,0.01,WUHU216HW,2013-02-21 00:20:00,
2013-02-20 19:25:00,51.7,34.6,30.01,SSW,203,0.0,0.0,52,0.00,,,0.01,WUHU216HW,2013-02-21 00:25:00,
2013-02-20 19:30:00,51.5,34.8,30.01,SSW,203,0.0,0.0,53,0.00,,,0.01,WUHU216HW,2013-02-21 00:30:00,
2013-02-20 19:35:00,51.5,35.3,30.01,SSW,203,0.0,0.0,54,0.00,,,0.01,WUHU216HW,2013-02-21 00:35:00,
2013-02-20 19:40:00,51.5,35.3,30.01,SSW,203,0.0,0.0,54,0.00,,,0.01,WUHU216HW,2013-02-21 00:40:00,
2013-02-20 19:45:00,51.5,35.7,30.01,SSW,203,0.0,0.0,55,0.00,,,0.01,WUHU216HW,2013-02-21 00:45:00,
2013-02-20 19:50:00,51.5,35.7,30.01,SSW,203,0.0,0.4,55,0.00,,,0.01,WUHU216HW,2013-02-21 00:50:00,
2013-02-20 19:55:00,51.5,36.2,30.01,SSW,203,0.0,0.4,56,0.00,,,0.01,WUHU216HW,2013-02-21 00:55:00,
2013-02-20 20:00:00,51.5,36.2,30.01,SSW,203,0.0,0.7,56,0.00,,,0.01,WUHU216HW,2013-02-21 01:00:00,
2013-02-20 20:05:00,51.5,36.2,30.00,SSW,203,0.0,0.7,56,0.00,,,0.01,WUHU216HW,2013-02-21 01:05:00,
2013-02-20 20:10:00,51.5,36.6,30.00,SSW,203,0.0,0.0,57,0.00,,,0.01,WUHU216HW,2013-02-21 01:10:00,
2013-02-20 20:15:00,51.3,37.0,30.00,SSW,203,0.0,0.4,58,0.00,,,0.01,WUHU216HW,2013-02-21 01:15:00,
2013-02-20 20:20:00,51.1,36.4,29.99,SSW,203,0.4,0.4,57,0.00,,,0.01,WUHU216HW,2013-02-21 01:20:00,
2013-02-20 20:25:00,51.1,36.8,29.99,SSW,203,0.0,0.7,58,0.00,,,0.01,WUHU216HW,2013-02-21 01:25:00,
2013-02-20 20:30:00,51.1,36.8,29.99,SSW,203,0.2,0.7,58,0.00,,,0.01,WUHU216HW,2013-02-21 01:30:00,
2013-02-20 20:35:00,50.9,37.1,29.99,SSW,203,0.9,1.1,59,0.00,,,0.01,WUHU216HW,2013-02-21 01:35:00,
2013-02-20 20:40:00,50.8,37.4,29.99,SSW,203,0.7,1.1,60,0.00,,,0.01,WUHU216HW,2013-02-21 01:40:00,
2013-02-20 20:45:00,50.4,37.1,29.99,SSW,203,1.8,1.8,60,0.00,,,0.01,WUHU216HW,2013-02-21 01:45:00,
2013-02-20 20:50:00,50.2,36.9,30.00,SSW,203,0.4,1.8,60,0.00,,,0.01,WUHU216HW,2013-02-21 01:50:00,
2013-02-20 20:55:00,50.0,36.7,29.99,SSW,203,0.4,1.8,60,0.00,,,0.01,WUHU216HW,2013-02-21 01:55:00,
2013-02-20 21:00:00,50.0,36.7,29.99,SSW,203,0.0,0.4,60,0.00,,,0.01,WUHU216HW,2013-02-21 02:00:00,
2013-02-20 21:05:00,50.0,36.7,29.99,SSW,203,0.2,0.4,60,0.00,,,0.01,WUHU216HW,2013-02-21 02:05:00,
2013-02-20 21:10:00,49.9,36.5,29.98,SSW,203,0.2,0.4,60,0.00,,,0.01,WUHU216HW,2013-02-21 02:10:00,
2013-02-20 21:15:00,49.7,36.4,29.99,SSW,203,0.0,0.4,60,0.00,,,0.01,WUHU216HW,2013-02-21 02:15:00,
2013-02-20 21:20:00,49.3,36.5,29.99,SSW,203,0.0,0.4,61,0.00,,,0.01,WUHU216HW,2013-02-21 02:20:00,
2013-02-20 21:25:00,49.1,36.7,30.00,SSW,203,0.0,0.2,62,0.00,,,0.01,WUHU216HW,2013-02-21 02:25:00,
2013-02-20 21:30:00,49.0,36.6,30.00,SSW,203,0.0,0.0,62,0.00,,,0.01,WUHU216HW,2013-02-21 02:30:00,
2013-02-20 21:35:00,48.8,36.0,30.00,SSW,203,0.0,0.0,61,0.00,,,0.01,WUHU216HW,2013-02-21 02:35:00,
2013-02-20 21:40:00,48.6,35.8,30.00,SSW,203,0.0,0.0,61,0.00,,,0.01,WUHU216HW,2013-02-21 02:40:00,
2013-02-20 21:45:00,48.4,36.4,30.00,SSW,203,0.0,0.0,63,0.00,,,0.01,WUHU216HW,2013-02-21 02:45:00,
2013-02-20 21:50:00,48.4,36.4,29.99,SSW,203,0.0,0.7,63,0.00,,,0.01,WUHU216HW,2013-02-21 02:50:00,
2013-02-20 21:55:00,48.1,36.1,30.00,SSW,203,0.0,0.7,63,0.00,,,0.01,WUHU216HW,2013-02-21 02:55:00,
2013-02-20 22:00:00,48.1,36.1,30.00,SSW,203,0.0,0.4,63,0.00,,,0.01,WUHU216HW,2013-02-21 03:00:00,
2013-02-20 22:05:00,47.9,35.9,30.00,SSW,203,0.0,0.0,63,0.00,,,0.01,WUHU216HW,2013-02-21 03:05:00,
2013-02-20 22:10:00,47.7,35.7,30.01,SSW,203,0.0,0.0,63,0.00,,,0.01,WUHU216HW,2013-02-21 03:10:00,
2013-02-20 22:15:00,47.5,35.9,30.01,SSW,203,0.0,0.0,64,0.00,,,0.01,WUHU216HW,2013-02-21 03:15:00,
2013-02-20 22:20:00,47.3,35.7,30.01,SSW,203,0.0,0.0,64,0.00,,,0.01,WUHU216HW,2013-02-21 03:20:00,
2013-02-20 22:25:00,47.0,35.4,30.01,SSW,203,0.0,0.0,64,0.00,,,0.01,WUHU216HW,2013-02-21 03:25:00,
2013-02-20 22:30:00,46.8,35.2,30.00,SSW,203,0.0,0.0,64,0.00,,,0.01,WUHU216HW,2013-02-21 03:30:00,
2013-02-20 22:35:00,46.6,35.5,30.00,SSW,203,0.0,0.0,65,0.00,,,0.01,WUHU216HW,2013-02-21 03:35:00,
2013-02-20 22:40:00,46.4,35.6,30.00,SSW,203,0.0,0.0,66,0.00,,,0.01,WUHU216HW,2013-02-21 03:40:00,
2013-02-20 22:45:00,46.4,35.6,30.00,SSW,203,0.0,0.0,66,0.00,,,0.01,WUHU216HW,2013-02-21 03:45:00,
2013-02-20 22:50:00,46.3,35.5,30.00,SSW,203,0.0,0.0,66,0.00,,,0.01,WUHU216HW,2013-02-21 03:50:00,
2013-02-20 22:55:00,45.7,35.4,30.00,SSW,203,0.0,0.0,67,0.00,,,0.01,WUHU216HW,2013-02-21 03:55:00,
2013-02-20 23:00:00,45.4,35.0,30.00,SSW,203,0.0,0.0,67,0.00,,,0.01,WUHU216HW,2013-02-21 04:00:00,
2013-02-20 23:05:00,44.8,35.3,30.00,SSW,203,0.0,0.0,69,0.00,,,0.01,WUHU216HW,2013-02-21 04:05:00,
2013-02-20 23:10:00,44.6,35.1,30.00,SSW,203,0.0,0.0,69,0.00,,,0.01,WUHU216HW,2013-02-21 04:10:00,
2013-02-20 23:15:00,44.6,35.1,30.00,SSW,203,0.0,0.0,69,0.00,,,0.01,WUHU216HW,2013-02-21 04:15:00,
2013-02-20 23:20:00,44.5,35.3,30.00,SSW,203,0.0,0.0,70,0.00,,,0.01,WUHU216HW,2013-02-21 04:20:00,
2013-02-20 23:25:00,43.9,35.2,30.00,SSW,203,0.0,0.0,71,0.00,,,0.01,WUHU216HW,2013-02-21 04:25:00,
2013-02-20 23:30:00,43.6,34.8,30.00,SSW,203,0.0,0.0,71,0.00,,,0.01,WUHU216HW,2013-02-21 04:30:00,
2013-02-20 23:35:00,43.0,34.3,30.00,SSW,203,0.0,0.0,71,0.00,,,0.01,WUHU216HW,2013-02-21 04:35:00,
2013-02-20 23:40:00,42.8,34.2,30.01,SSW,203,0.0,0.0,71,0.00,,,0.01,WUHU216HW,2013-02-21 04:40:00,
2013-02-20 23:45:00,43.0,34.7,30.01,SSW,203,0.0,0.0,72,0.00,,,0.01,WUHU216HW,2013-02-21 04:45:00,
2013-02-20 23:50:00,43.0,34.7,30.01,SSW,203,0.0,0.0,72,0.00,,,0.01,WUHU216HW,2013-02-21 04:50:00,
2013-02-20 23:56:00,43.0,34.7,30.01,SSW,203,0.0,0.0,72,0.00,,,0.01,WUHU216HW,2013-02-21 04:56:00,